sat.trackr.live / text

‹ back to catalog

ONEWEB-0370

NORAD 49296 · 2021-090T

PAYLOAD ACTIVE UNKNOWN

§ Identity

Operator
Country
UK
Launch date
2021-10-14
Launch site
VOSTO
Launch vehicle
Mass (kg)
RCS (m²)

Purposes: comms

External: N2YO · Heavens-Above · Gunter

§ Orbital elements

Epoch: 2026-05-24T21:57:43.878816Z

Period
109.03 min
Inclination
87.9176°
Eccentricity
0.0001804
Mean motion
13.20772985 rev/d
Perigee alt
1,180.4 km
Apogee alt
1,183.1 km
Semi-major
7,559.9 km
B*
-1.8814e-4
RAAN
279.0800°
Arg perigee
108.0979°
Mean anomaly
252.0351°
Rev number
22,679

§ Raw data

ONEWEB-03701 49296U 21090T   26144.91509119 -.00000064  00000+0 -18814-3 0  99902 49296  87.9176 279.0800 0001804 108.0979 252.0351 13.20772985226791

JSON: /api/v1/satellites/49296 · /tle

For live sub-satellite position, see the globe view (requires WebGL).

§ Visibility from observer

Set your observer location to see the next 7 days of passes ≥ 10°. The values pass through the URL so the page stays shareable.

No JS? Fill the form by hand. The geolocation button needs JavaScript.